Temp
-10 -10 -11 -11 -11 -11 -12 -12 -12 -11 -11 -11 -12 -11 -12 -12 -11 -11 -12 -12 -12 -13 -13 -14 -15 -14 -13 -13 -13 -13 -13 -13
-12 -12 -11 -11 -11 -11 -12 -12 -12 -12 -12 -12 -12 -12 -12 -12 -12 -12 -12 -11 -12 -12 -13 -16 -15 -14 -13 -13 -13 -13 -13 -13
-13 -13 -12 -12 -12 -11 -11 -11 -11 -11 -12 -12 -12 -11 -12 -12 -12 -11 -12 -12 -12 -14 -15 -16 -16 -15 -14 -13 -14 -14 -14 -13
-12 -13 -13 -13 -13 -12 -12 -13 -12 -11 -11 -12 -11 -11 -12 -11 -11 -11 -12 -13 -14 -15 -15 -15 -15 -14 -14 -14 -14 -14 -13 -13
-12 -12 -13 -13 -12 -13 -12 -12 -12 -11 -11 -11 -11 -11 -11 -11 -11 -12 -13 -15 -16 -16 -15 -15 -14 -14 -14 -14 -13 -13 -13 -13
-12 -13 -13 -12 -12 -12 -12 -12 -12 -12 -12 -11 -11 -11 -11 -13 -13 -13 -14 -15 -16 -15 -15 -15 -14 -14 -14 -14 -13 -13 -13 -13
-12 -13 -12 -12 -12 -12 -12 -11 -12 -12 -12 -12 -12 -12 -13 -13 -12 -14 -15 -16 -16 -15 -15 -15 -14 -14 -14 -14 -14 -13 -13 -14
-12 -12 -12 -12 -12 -12 -12 -12 -12 -12 -12 -12 -12 -13 -13 -13 -14 -15 -16 -16 -16 -15 -15 -15 -14 -14 -14 -14 -14 -14 -14 -14
-12 -12 -12 -12 -12 -12 -13 -13 -12 -12 -12 -12 -12 -14 -14 -15 -15 -15 -16 -16 -15 -15 -15 -15 -14 -14 -14 -14 -14 -14 -14 -14
-12 -12 -12 -12 -13 -13 -13 -13 -12 -12 -13 -13 -14 -15 -15 -15 -15 -16 -16 -15 -15 -15 -15 -14 -14 -14 -14 -15 -15 -15 -14 -14
-13 -13 -13 -13 -13 -13 -13 -13 -13 -14 -15 -15 -15 -16 -15 -15 -16 -15 -15 -15 -15 -15 -15 -15 -14 -15 -15 -15 -15 -15 -15 -15
-15 -14 -14 -14 -14 -15 -15 -15 -15 -15 -15 -15 -15 -15 -15 -15 -15 -15 -15 -15 -15 -15 -15 -15 -15 -15 -15 -15 -15 -15 -15 -15
-15 -14 -14 -14 -14 -14 -14 -15 -15 -15 -15 -15 -16 -16 -16 -15 -15 -15 -15 -15 -15 -15 -15 -15 -15 -15 -15 -15 -15 -15 -16 -15
-15 -15 -15 -15 -15 -15 -15 -15 -15 -15 -16 -16 -16 -16 -16 -15 -15 -15 -15 -15 -15 -15 -15 -15 -15 -15 -16 -15 -15 -15 -14 -15
-15 -15 -15 -15 -15 -15 -15 -15 -16 -16 -16 -16 -16 -16 -16 -16 -16 -16 -15 -15 -16 -16 -15 -15 -15 -15 -16 -16 -15 -15 -15 -15
-15 -15 -16 -15 -15 -15 -15 -16 -16 -16 -16 -16 -16 -16 -15 -15 -16 -15 -15 -15 -16 -15 -16 -15 -16 -16 -16 -17 -16 -16 -15 -16
-15 -15 -15 -15 -15 -15 -16 -16 -16 -16 -16 -16 -16 -15 -15 -15 -16 -16 -16 -16 -16 -16 -15 -16 -15 -15 -15 -16 -16 -16 -17 -17
-16 -15 -16 -16 -16 -16 -16 -16 -15 -15 -16 -16 -15 -16 -16 -16 -16 -16 -16 -16 -16 -16 -15 -16 -16 -16 -16 -16 -16 -16 -17 -17
-16 -16 -16 -16 -16 -16 -16 -16 -16 -16 -16 -16 -15 -16 -17 -16 -16 -16 -16 -16 -16 -16 -16 -16 -16 -15 -16 -17 -17 -17 -17 -17
-16 -16 -16 -16 -16 -16 -16 -16 -16 -16 -15 -16 -16 -16 -16 -16 -16 -16 -16 -16 -16 -16 -16 -16 -16 -16 -17 -17 -17 -17 -17 -17
Height
5758 5759 5773 5777 5763 5773 5783 5787 5789 5791 5793 5796 5797 5799 5801 5803 5804 5806 5807 5808 5809 5809 5810 5812 5814 5816 5817 5818 5818 5820 5821 5820
5755 5761 5761 5770 5770 5762 5772 5778 5782 5786 5788 5790 5791 5795 5797 5799 5799 5801 5803 5804 5805 5805 5806 5808 5811 5814 5815 5816 5816 5817 5818 5820
5760 5761 5762 5760 5765 5767 5767 5770 5776 5778 5781 5785 5787 5789 5791 5793 5795 5796 5798 5799 5801 5802 5803 5805 5809 5811 5812 5813 5813 5815 5815 5816
5757 5762 5762 5764 5765 5765 5765 5769 5771 5773 5776 5779 5781 5783 5785 5787 5789 5791 5791 5793 5796 5799 5802 5804 5807 5808 5809 5809 5810 5812 5812 5813
5750 5753 5757 5759 5762 5764 5763 5764 5765 5770 5772 5773 5777 5778 5780 5778 5781 5784 5788 5789 5791 5798 5801 5802 5803 5805 5806 5806 5807 5808 5808 5809
5748 5747 5751 5756 5759 5760 5760 5763 5763 5767 5765 5770 5770 5774 5773 5773 5777 5780 5782 5786 5791 5796 5797 5799 5800 5801 5803 5804 5804 5804 5804 5804
5743 5746 5749 5753 5754 5755 5756 5758 5756 5760 5765 5766 5766 5769 5772 5773 5774 5777 5781 5785 5791 5793 5794 5795 5796 5798 5798 5800 5801 5800 5799 5800
5740 5742 5744 5745 5748 5750 5752 5753 5758 5761 5762 5763 5764 5766 5767 5770 5773 5775 5779 5785 5788 5790 5790 5791 5793 5794 5797 5796 5796 5794 5793 5793
5736 5737 5739 5740 5742 5745 5747 5749 5754 5757 5758 5760 5760 5762 5765 5768 5772 5774 5778 5782 5786 5787 5787 5788 5790 5791 5792 5792 5790 5789 5788 5787
5732 5735 5738 5740 5743 5744 5746 5749 5751 5752 5754 5756 5759 5762 5765 5769 5772 5774 5777 5780 5783 5784 5785 5786 5787 5788 5787 5787 5785 5783 5782 5781
5731 5732 5735 5739 5742 5743 5743 5745 5746 5749 5753 5756 5760 5762 5766 5769 5772 5774 5774 5777 5779 5781 5782 5783 5783 5783 5782 5780 5779 5779 5777 5775
5735 5734 5736 5739 5741 5742 5744 5745 5749 5752 5754 5756 5759 5763 5765 5768 5771 5771 5772 5774 5775 5777 5778 5779 5778 5777 5774 5775 5773 5770 5769 5768
5739 5739 5742 5745 5745 5746 5745 5746 5750 5753 5755 5755 5759 5762 5765 5767 5767 5769 5771 5772 5773 5773 5773 5773 5772 5771 5769 5767 5766 5764 5762 5760
5741 5742 5743 5743 5744 5746 5746 5749 5751 5752 5753 5757 5760 5762 5762 5765 5766 5766 5768 5769 5769 5769 5767 5767 5766 5763 5761 5759 5757 5756 5754 5751
5743 5743 5742 5743 5747 5747 5747 5748 5751 5753 5756 5757 5759 5760 5759 5762 5764 5764 5764 5765 5764 5763 5762 5761 5758 5756 5754 5752 5748 5746 5743 5739
5743 5744 5745 5747 5747 5747 5749 5751 5752 5754 5755 5756 5758 5759 5760 5760 5760 5759 5758 5759 5758 5755 5755 5752 5751 5748 5746 5745 5739 5735 5731 5729
5743 5745 5746 5745 5745 5746 5748 5748 5749 5750 5752 5754 5756 5756 5756 5756 5756 5757 5755 5754 5752 5749 5749 5746 5743 5740 5738 5734 5730 5726 5721 5717
5743 5743 5743 5744 5745 5745 5745 5745 5746 5748 5749 5750 5750 5751 5752 5753 5752 5751 5749 5748 5746 5743 5738 5736 5732 5729 5726 5724 5721 5716 5710 5705
5741 5742 5743 5743 5744 5743 5742 5743 5745 5743 5744 5745 5744 5745 5747 5747 5745 5744 5742 5739 5737 5735 5732 5728 5726 5724 5720 5716 5711 5705 5699 5693
5738 5739 5740 5740 5740 5739 5740 5743 5744 5741 5738 5740 5740 5741 5741 5741 5740 5738 5735 5732 5729 5726 5723 5720 5716 5713 5711 5706 5701 5694 5687 5681
Wind_Speed
19 33 33 34 39 35 36 33 32 33 33 31 30 28 27 26 20 23 21 23 28 26 26 22 17 14 12 11 13 14 12 14
31 29 19 36 46 37 37 31 31 35 35 31 31 22 30 34 30 26 26 27 30 32 28 15 13 13 11 13 14 13 14 14
33 34 32 24 15 32 40 38 34 33 34 34 24 23 29 36 36 34 31 30 27 28 15 8 12 11 13 14 14 15 13 12
31 27 29 24 16 13 8 8 21 28 32 34 31 30 32 31 38 39 38 23 18 13 10 12 12 13 15 15 14 14 11 11
26 30 29 14 15 19 17 18 19 20 37 37 45 45 44 56 47 44 30 18 10 11 11 10 13 15 16 14 13 10 12 15
26 19 17 19 25 22 21 21 31 23 26 37 27 35 32 43 32 29 29 14 12 10 10 11 14 16 15 11 10 13 13 17
21 20 22 27 25 25 24 24 23 24 19 23 20 23 28 33 35 25 16 12 11 12 12 11 13 12 11 12 14 16 17 20
20 20 26 26 24 29 25 22 25 31 31 31 22 25 28 32 22 20 17 12 13 13 11 11 10 10 13 14 17 19 21 23
16 19 20 21 17 17 21 24 28 31 28 28 20 17 23 18 21 17 14 13 13 12 11 10 11 13 16 17 18 21 24 28
10 15 17 18 17 17 21 24 27 27 23 15 14 17 19 18 14 13 10 10 13 11 11 13 15 16 18 19 21 24 27 29
3 12 20 22 19 24 29 26 16 12 14 16 17 12 11 9 11 9 10 13 13 13 14 15 18 20 22 23 26 28 29 31
17 20 17 10 12 13 15 19 19 17 15 11 5 2 8 12 12 12 13 15 14 16 17 19 20 24 26 25 26 27 31 34
12 11 12 11 11 12 14 14 9 7 4 3 2 6 10 16 16 14 14 15 17 20 20 24 26 28 32 31 29 29 33 38
9 10 9 10 10 9 8 5 3 3 4 4 6 11 11 11 14 14 16 19 20 23 24 28 33 36 38 40 35 35 42 45
7 9 11 11 10 10 10 8 6 4 5 7 8 12 13 12 14 18 21 24 27 30 30 32 36 39 37 40 41 42 46 51
6 8 7 8 10 11 10 8 6 7 8 10 11 11 13 15 18 18 21 26 29 28 33 37 39 38 42 40 46 45 51 55
6 7 9 10 12 12 13 13 13 12 11 12 13 15 16 17 19 22 23 27 31 32 31 41 36 43 47 49 50 52 56 60
9 10 11 11 10 12 15 16 16 15 14 15 19 19 20 21 24 26 29 31 30 36 35 30 33 43 47 51 52 56 58 60
12 12 12 12 11 13 16 16 16 16 13 11 17 10 13 21 27 30 33 35 35 37 42 39 33 46 50 47 52 57 60 67
12 13 12 12 13 15 14 19 17 16 11 16 19 19 19 25 27 32 34 32 36 32 30 36 35 41 49 54 55 62 72 77
Wind_Direction
212 204 227 229 245 210 226 234 241 246 249 251 251 259 259 266 260 251 259 263 260 256 252 253 248 255 262 285 290 301 305 308
270 253 232 230 230 203 222 226 235 243 247 244 246 269 264 261 260 254 263 264 266 271 267 239 243 249 278 275 288 297 301 300
275 281 263 268 278 225 222 223 232 240 236 245 244 281 281 264 263 258 257 264 274 268 246 218 235 251 262 274 285 283 296 292
271 275 280 293 303 238 270 244 239 260 242 230 254 280 286 266 265 261 259 250 240 225 216 214 245 252 257 273 277 282 278 282
291 272 258 268 274 284 278 255 255 259 265 242 258 269 289 276 255 257 256 229 219 221 205 233 239 260 269 280 273 267 289 294
273 272 234 256 263 272 264 248 266 255 271 267 267 267 299 274 242 251 247 194 170 210 224 240 251 260 271 264 270 280 289 291
273 231 225 246 261 263 261 250 284 254 269 272 276 285 267 252 260 249 178 158 203 228 238 256 261 257 252 270 284 288 289 298
263 240 241 254 255 254 268 271 263 251 260 258 281 274 273 259 246 183 162 195 221 236 245 253 240 252 268 277 285 297 301 308
248 247 243 251 263 249 244 245 248 266 274 281 269 263 252 217 180 160 182 207 232 241 250 233 250 264 277 288 304 309 308 308
217 213 220 224 240 233 252 258 257 264 263 261 233 221 179 162 166 184 204 228 237 236 232 247 265 275 283 294 304 313 312 308
121 214 219 228 236 245 254 261 260 232 178 158 150 144 167 183 193 204 223 226 228 232 246 265 275 283 290 302 305 303 308 310
68 69 72 105 174 145 148 132 123 117 117 120 135 221 229 215 220 228 224 221 227 244 259 269 287 297 300 304 303 307 313 311
49 69 81 86 87 89 79 71 71 83 98 80 289 271 268 259 223 228 229 234 244 255 269 282 290 293 296 301 300 307 312 311
28 36 40 42 38 43 47 37 36 4 346 295 281 277 276 266 240 238 243 257 264 275 282 291 293 293 296 292 297 299 304 308
10 13 16 18 2 13 16 12 360 327 285 277 261 262 268 281 254 256 259 262 271 280 289 294 298 296 294 292 296 300 307 307
353 359 357 342 339 350 349 342 329 313 304 291 282 276 268 274 281 287 270 269 288 280 302 296 303 298 298 292 295 300 303 305
327 322 319 325 329 326 320 316 315 313 305 293 279 280 284 287 290 293 295 292 294 291 291 289 293 294 302 297 299 300 300 305
298 307 312 311 316 308 305 301 299 301 300 298 297 280 279 285 290 296 298 296 287 295 285 289 279 273 288 294 297 295 297 297
301 309 310 304 297 298 295 295 298 290 286 297 297 270 313 304 297 297 299 301 296 297 290 284 278 269 286 296 293 290 290 297
291 291 298 298 292 284 288 299 304 302 290 313 308 307 305 300 297 300 301 297 300 301 295 305 282 298 294 298 284 295 299 301